| time (UTC) | temp F | wind direction | speed knots | gust knots | rain 1hr in | rain 24hr in | rain mn in | humidity % | barometer mb |
| 20260506110034 | 66 | 226 | 12.2 | 26.1 | 0.00 | 0.00 | 0.00 | 68 | 1014.1 |
| 20260506104531 | 65 | 256 | 9.6 | 21.7 | 0.00 | 0.00 | 0.00 | 69 | 1013.8 |
| 20260506103032 | 64 | 254 | 6.1 | 15.6 | 0.00 | 0.00 | 0.00 | 71 | 1013.7 |
| 20260506101531 | 63 | 205 | 7.0 | 16.5 | 0.00 | 0.00 | 0.00 | 71 | 1013.6 |
| 20260506100034 | 63 | 255 | 7.0 | 23.5 | 0.00 | 0.00 | 0.00 | 71 | 1013.8 |
| 20260506094534 | 62 | 189 | 9.6 | 20.0 | 0.00 | 0.00 | 0.00 | 72 | 1013.8 |
| 20260506093034 | 60 | 193 | 6.1 | 19.1 | 0.00 | 0.00 | 0.00 | 73 | 1013.4 |
| 20260506091534 | 60 | 215 | 4.3 | 12.2 | 0.00 | 0.00 | 0.00 | 72 | 1013.2 |
| 20260506090031 | 59 | 198 | 4.3 | 11.3 | 0.00 | 0.00 | 0.00 | 71 | 1013.1 |
| 20260506084536 | 60 | 223 | 4.3 | 10.4 | 0.00 | 0.00 | 0.00 | 70 | 1013.0 |
| 20260506083032 | 60 | 251 | 6.1 | 13.0 | 0.00 | 0.00 | 0.00 | 69 | 1012.7 |
| 20260506081541 | 60 | 225 | 3.5 | 9.6 | 0.00 | 0.00 | 0.00 | 68 | 1012.7 |
| 20260506073036 | 59 | 190 | 4.3 | 14.8 | 0.00 | 0.00 | 0.00 | 70 | 1012.4 |
| 20260506071534 | 59 | 229 | 4.3 | 11.3 | 0.00 | 0.00 | 0.00 | 70 | 1012.3 |
| 20260506061538 | 60 | 206 | 7.8 | 18.2 | 0.00 | 0.00 | 0.00 | 67 | 1012.4 |
| 20260506044538 | 59 | 237 | 6.1 | 15.6 | 0.00 | 0.00 | 0.00 | 68 | 1012.4 |
| 20260506043033 | 60 | 230 | 4.3 | 13.9 | 0.00 | 0.00 | 0.00 | 67 | 1012.5 |
| 20260506041539 | 61 | 194 | 7.8 | 16.5 | 0.00 | 0.00 | 0.00 | 67 | 1012.5 |
| 20260506040035 | 61 | 245 | 7.8 | 16.5 | 0.00 | 0.00 | 0.00 | 66 | 1012.6 |
| 20260506034534 | 61 | 202 | 7.0 | 16.5 | 0.00 | 0.00 | 0.00 | 65 | 1012.5 |
| 20260506033034 | 62 | 234 | 7.8 | 17.4 | 0.00 | 0.00 | 0.00 | 64 | 1012.3 |
| 20260506031538 | 62 | 228 | 5.2 | 13.9 | 0.00 | 0.00 | 0.00 | 64 | 1012.1 |
| 20260506030032 | 61 | 221 | 4.3 | 12.2 | 0.00 | 0.00 | 0.00 | 64 | 1011.9 |
| 20260506024540 | 62 | 205 | 5.2 | 13.0 | 0.00 | 0.00 | 0.00 | 63 | 1012.1 |
| 20260506023032 | 62 | 206 | 4.3 | 14.8 | 0.00 | 0.00 | 0.00 | 61 | 1012.0 |
| 20260506021534 | 63 | 214 | 4.3 | 12.2 | 0.00 | 0.00 | 0.00 | 60 | 1012.0 |
| 20260506020031 | 63 | 228 | 7.0 | 15.6 | 0.00 | 0.00 | 0.00 | 60 | 1011.9 |
| 20260506014534 | 63 | 221 | 5.2 | 16.5 | 0.00 | 0.00 | 0.00 | 59 | 1012.0 |
| 20260506013034 | 63 | 198 | 7.8 | 20.0 | 0.00 | 0.00 | 0.00 | 57 | 1012.1 |
| 20260506011558 | 63 | 244 | 7.8 | 16.5 | 0.00 | 0.00 | 0.00 | 55 | 1012.0 |
| 20260506010036 | 63 | 227 | 5.2 | 18.2 | 0.00 | 0.00 | 0.00 | 53 | 1011.7 |
| 20260506004540 | 64 | 222 | 8.7 | 20.9 | 0.00 | 0.00 | 0.00 | 52 | 1011.5 |
| 20260506003034 | 63 | 229 | 6.1 | 18.2 | 0.00 | 0.00 | 0.00 | 50 | 1011.3 |
| 20260506001531 | 63 | 258 | 6.1 | 12.2 | 0.00 | 0.00 | 0.00 | 48 | 1011.0 |
| 20260506000051 | 64 | 200 | 7.0 | 11.3 | 0.00 | 0.00 | 0.00 | 47 | 1011.0 |
| 20260505234540 | 64 | 223 | 2.6 | 9.6 | 0.00 | 0.00 | 0.00 | 47 | 1010.8 |
| 20260505233035 | 65 | 245 | 3.5 | 10.4 | 0.00 | 0.00 | 0.00 | 46 | 1010.5 |
| 20260505231534 | 66 | 0 | 5.2 | 12.2 | 0.00 | 0.00 | 0.00 | 45 | 1010.3 |
| 20260505230051 | 66 | 190 | 7.8 | 16.5 | 0.00 | 0.00 | 0.00 | 45 | 1010.1 |
| 20260505224539 | 67 | 228 | 6.1 | 16.5 | 0.00 | 0.00 | 0.00 | 44 | 1010.1 |
| 20260505223031 | 67 | 225 | 7.8 | 18.2 | 0.00 | 0.00 | 0.00 | 44 | 1010.2 |
| 20260505221532 | 68 | 205 | 8.7 | 14.8 | 0.00 | 0.00 | 0.00 | 44 | 1010.2 |
| 20260505220039 | 69 | 217 | 8.7 | 20.0 | 0.00 | 0.00 | 0.00 | 43 | 1010.2 |
| 20260505214534 | 71 | 216 | 10.4 | 22.6 | 0.00 | 0.00 | 0.00 | 42 | 1010.0 |
| 20260505213034 | 71 | 180 | 12.2 | 25.2 | 0.00 | 0.00 | 0.00 | 44 | 1009.8 |
| 20260505211537 | 73 | 215 | 10.4 | 19.1 | 0.00 | 0.00 | 0.00 | 40 | 1009.8 |
| 20260505210035 | 75 | 216 | 6.1 | 13.9 | 0.00 | 0.00 | 0.00 | 37 | 1009.6 |
| 20260505204543 | 74 | 184 | 11.3 | 24.3 | 0.00 | 0.00 | 0.00 | 35 | 1009.7 |
| 20260505203037 | 75 | 232 | 8.7 | 22.6 | 0.00 | 0.00 | 0.00 | 38 | 1009.7 |
| 20260505201532 | 75 | 281 | 9.6 | 17.4 | 0.00 | 0.00 | 0.00 | 37 | 1009.7 |
| 20260505200032 | 75 | 192 | 6.1 | 24.3 | 0.00 | 0.00 | 0.00 | 37 | 1009.7 |
| 20260505194543 | 73 | 216 | 10.4 | 26.9 | 0.00 | 0.00 | 0.00 | 38 | 1009.7 |
| 20260505193037 | 74 | 215 | 6.1 | 20.0 | 0.00 | 0.00 | 0.00 | 40 | 1009.6 |
| 20260505191534 | 74 | 171 | 6.1 | 19.1 | 0.00 | 0.00 | 0.00 | 42 | 1009.6 |
| 20260505190038 | 73 | 186 | 8.7 | 21.7 | 0.00 | 0.00 | 0.00 | 41 | 1009.5 |
| 20260505184537 | 73 | 194 | 11.3 | 22.6 | 0.00 | 0.00 | 0.00 | 42 | 1009.5 |
| 20260505183034 | 74 | 184 | 8.7 | 26.1 | 0.00 | 0.00 | 0.00 | 40 | 1009.5 |
| 20260505181558 | 72 | 180 | 10.4 | 22.6 | 0.00 | 0.00 | 0.00 | 43 | 1009.4 |
| 20260505180045 | 73 | 192 | 8.7 | 17.4 | 0.00 | 0.00 | 0.00 | 42 | 1009.5 |
| 20260505174534 | 72 | 215 | 7.8 | 14.8 | 0.00 | 0.00 | 0.00 | 44 | 1009.5 |
| 20260505173034 | 71 | 201 | 9.6 | 17.4 | 0.00 | 0.00 | 0.00 | 44 | 1009.7 |
| 20260505171531 | 68 | 159 | 10.4 | 17.4 | 0.00 | 0.00 | 0.00 | 48 | 1009.7 |
| 20260505170033 | 64 | 105 | 3.5 | 9.6 | 0.00 | 0.00 | 0.00 | 54 | 1009.9 |
| 20260505164530 | 62 | 54 | 4.3 | 10.4 | 0.00 | 0.11 | 0.00 | 56 | 1010.0 |
| 20260505163031 | 68 | 105 | 5.2 | 11.3 | 0.00 | 0.11 | 0.00 | 48 | 1010.0 |
| 20260505161532 | 67 | 225 | 7.0 | 12.2 | 0.00 | 0.11 | 0.00 | 52 | 1010.0 |
| 20260505153032 | 65 | 180 | 6.1 | 13.0 | 0.00 | 0.29 | 0.00 | 55 | 1010.0 |
| 20260505151534 | 64 | 227 | 6.1 | 13.0 | 0.00 | 0.29 | 0.00 | 54 | 1010.3 |
| 20260505124542 | 56 | 259 | 7.0 | 19.1 | 0.00 | 0.59 | 0.00 | 56 | 1010.3 |
| 20260505123037 | 56 | 199 | 7.0 | 15.6 | 0.00 | 0.59 | 0.00 | 55 | 1010.0 |
| 20260505121604 | 56 | 185 | 7.8 | 15.6 | 0.00 | 0.59 | 0.00 | 55 | 1010.0 |
| 20260505120031 | 56 | 190 | 5.2 | 16.5 | 0.00 | 0.59 | 0.00 | 57 | 1009.5 |
| 20260505114535 | 55 | 279 | 6.1 | 14.8 | 0.00 | 0.60 | 0.00 | 59 | 1009.5 |
| 20260505113032 | 54 | 188 | 3.5 | 10.4 | 0.00 | 0.60 | 0.00 | 60 | 1009.2 |
| 20260505111539 | 53 | 288 | 2.6 | 8.7 | 0.00 | 0.60 | 0.00 | 64 | 1009.3 |